, AK

(GMT )
Deadhorse

Weather History for PASC - May, 2013

Change the Weather History Date:

Wednesday, May 15, 2013

  Actual Average Record
Temperature  
Mean Temperature 8 °F -  
Max Temperature 18 °F 25 °F 37 °F (1992)
Min Temperature -2 °F 14 °F -8 °F (2000)
Degree Days  
Heating Degree Days 58    
Moisture  
Dew Point 4 °F    
Average Humidity 80    
Maximum Humidity 88    
Minimum Humidity 74    
Precipitation  
Precipitation 0.00 in - - ()
Sea Level Pressure  
Sea Level Pressure 29.66 in    
Wind  
Wind Speed 7 mph (ESE)    
Max Wind Speed 12 mph    
Max Gust Speed -    
Visibility 10 miles    
Events      
Averages and records for this station are not official NWS values.
T = Trace of Precipitation, MM = Missing Value Source: NWS Daily Summary

Daily Weather History Graph

Daily Weather History Graph

Search for Another Location

Airport or City:

Trip Planner

Search our weather history database for the weather conditions in past years. The results will help you decide how hot, cold, wet, or windy it might be!

Date:

Astronomy

May. 15, 2013 Rise Set
Actual Time 2:02 AM AKDT 1:17 AM AKDT
Civil Twilight Sun does not set Sun does not set
Nautical Twilight Sun does not set Sun does not set
Astronomical Twilight Sun does not set Sun does not set
Moon 8:45 AM AKDT (5/15) 3:39 AM AKDT (5/15)
Length of Visible Light 24h 00m
Length of Day
23h 15m
Waxing Crescent, 28% of the Moon is Illuminated
May 15
Waxing Crescent
May 17
First Quarter
May 24
Full
May 31
Last Quarter
Jun 8
New

Hourly Weather History & Observations

Time (AKDT) Temp. Windchill Dew Point Humidity Pressure Visibility Wind Dir Wind Speed Gust Speed Precip Events Conditions
12:53 AM 1.9 °F -11.8 °F -2.0 °F 83% 29.69 in 10.0 mi SSE 8.1 mph - N/A   Mostly Cloudy
1:53 AM -0.0 °F -13.0 °F -4.0 °F 83% 29.68 in 10.0 mi SE 6.9 mph - N/A   Scattered Clouds
2:53 AM -2.0 °F -15.4 °F -6.0 °F 83% 29.68 in 10.0 mi ESE 6.9 mph - N/A   Scattered Clouds
3:53 AM -0.0 °F -13.0 °F -5.1 °F 79% 29.67 in 10.0 mi ESE 6.9 mph - N/A   Mostly Cloudy
4:53 AM -2.0 °F -15.4 °F -7.1 °F 79% 29.66 in 10.0 mi East 6.9 mph - N/A   Mostly Cloudy
5:53 AM -2.0 °F -12.2 °F -7.1 °F 79% 29.66 in 10.0 mi SE 4.6 mph - N/A   Mostly Cloudy
6:53 AM -0.0 °F - -6.0 °F 76% 29.66 in 10.0 mi Calm Calm - N/A   Clear
7:53 AM -0.0 °F - -5.1 °F 79% 29.66 in 10.0 mi Calm Calm - N/A   Scattered Clouds
8:53 AM 3.0 °F - -2.9 °F 76% 29.66 in 10.0 mi Calm Calm - N/A   Clear
9:53 AM 5.0 °F -2.1 °F -0.0 °F 80% 29.65 in 10.0 mi ESE 3.5 mph - N/A   Scattered Clouds
10:53 AM 10.0 °F - 3.9 °F 76% 29.66 in 10.0 mi Calm Calm - N/A   Partly Cloudy
11:53 AM 12.9 °F 2.6 °F 7.0 °F 77% 29.66 in 10.0 mi East 6.9 mph - N/A   Partly Cloudy
12:53 PM 14.0 °F 3.9 °F 9.0 °F 80% 29.65 in 10.0 mi East 6.9 mph - N/A   Clear
1:53 PM 15.1 °F 3.3 °F 8.1 °F 74% 29.66 in 10.0 mi East 9.2 mph - N/A   Clear
2:53 PM 14.0 °F 2.0 °F 8.1 °F 77% 29.66 in 10.0 mi East 9.2 mph - N/A   Clear
3:53 PM 15.1 °F 2.5 °F 10.0 °F 80% 29.66 in 10.0 mi ESE 10.4 mph - N/A   Clear
4:53 PM 16.0 °F 5.3 °F 10.0 °F 77% 29.66 in 10.0 mi East 8.1 mph - N/A   Clear
5:53 PM 17.1 °F 5.8 °F 10.9 °F 77% 29.66 in 10.0 mi ESE 9.2 mph - N/A   Scattered Clouds
6:53 PM 17.1 °F 5.8 °F 12.9 °F 84% 29.65 in 10.0 mi ESE 9.2 mph - N/A   Scattered Clouds
7:53 PM 16.0 °F 5.3 °F 12.0 °F 84% 29.65 in 10.0 mi East 8.1 mph - N/A   Scattered Clouds
8:53 PM 15.1 °F 3.3 °F 10.9 °F 84% 29.64 in 10.0 mi East 9.2 mph - N/A   Scattered Clouds
9:53 PM 14.0 °F 2.0 °F 10.9 °F 88% 29.63 in 10.0 mi East 9.2 mph - N/A   Overcast
10:53 PM 12.0 °F -1.3 °F 9.0 °F 88% 29.62 in 10.0 mi East 10.4 mph - N/A   Mostly Cloudy
11:53 PM 10.0 °F -4.5 °F 7.0 °F 87% 29.61 in 10.0 mi East 11.5 mph - N/A   Mostly Cloudy